Port Hope, MI

7:19 AM EDT on April 27, 2017 (GMT -0400)
Port Hope

Weather History for KP58 - December, 2013

Change the Weather History Date:

Tuesday, December 24, 2013

  Actual Average Record
Temperature  
Mean Temperature 11 °F -  
Max Temperature 19 °F 31 °F 57 °F (2015)
Min Temperature 3 °F 20 °F 1 °F (2004)
Degree Days  
Heating Degree Days 54    
Moisture  
Dew Point 8 °F    
Average Humidity 76    
Maximum Humidity 88    
Minimum Humidity 64    
Precipitation  
Precipitation 0.04 in - - ()
Sea Level Pressure  
Sea Level Pressure 30.43 in    
Wind  
Wind Speed 6 mph (WNW)    
Max Wind Speed 10 mph    
Max Gust Speed 20 mph    
Averages and records for this station are not official NWS values.
T = Trace of Precipitation, MM = Missing Value Source: NWS Daily Summary

Daily Weather History Graph

Daily Weather History Graph

Search for Another Location

Airport or City:

Trip Planner

Search our weather history database for the weather conditions in past years. The results will help you decide how hot, cold, wet, or windy it might be!

Date:

Astronomy

Dec. 24, 2013 Rise Set
Actual Time 8:04 AM EST 4:57 PM EST
Civil Twilight 7:31 AM EST 5:30 PM EST
Nautical Twilight 6:54 AM EST 6:07 PM EST
Astronomical Twilight 6:19 AM EST 6:42 PM EST
Moon No Moon Rise 11:44 AM EST (12/24)
Length of Visible Light 9h 59m
Length of Day
8h 53m
Waning Gibbous, 59% of the Moon is Illuminated
Dec 24
Waning Gibbous
Dec 25
Last Quarter
Jan 1
New
Jan 7
First Quarter
Jan 15
Full

Hourly Weather History & Observations

Time (EST) Temp. Windchill Dew Point Humidity Pressure Visibility Wind Dir Wind Speed Gust Speed Precip Events Conditions
12:51 AM 19.9 °F 12.1 °F 14.0 °F 78% 30.29 in - NNW 5.8 mph - N/A   Unknown
1:51 AM 19.0 °F 12.3 °F 12.9 °F 77% 30.29 in - NW 4.6 mph - N/A   Unknown
2:51 AM 18.0 °F 9.8 °F 12.9 °F 81% 30.30 in - NW 5.8 mph - N/A   Unknown
3:51 AM 18.0 °F 12.7 °F 12.0 °F 78% 30.32 in - West 3.5 mph - N/A   Unknown
4:51 AM 18.0 °F 9.8 °F 12.9 °F 81% 30.32 in - WNW 5.8 mph - N/A   Unknown
5:51 AM 17.1 °F 8.7 °F 14.0 °F 88% 30.33 in - WNW 5.8 mph - 0.01 in   Unknown
6:51 AM 17.1 °F 5.0 °F 12.9 °F 84% 30.34 in - WNW 10.4 mph 19.6 mph N/A   Unknown
7:51 AM 19.0 °F 10.0 °F 12.9 °F 77% 30.35 in - NW 6.9 mph - 0.01 in   Unknown
8:51 AM 19.0 °F 9.0 °F 12.0 °F 74% 30.37 in - North 8.1 mph - N/A   Unknown
9:51 AM 18.0 °F 7.7 °F 12.0 °F 78% 30.40 in - North 8.1 mph - N/A   Unknown
10:51 AM 18.0 °F 8.7 °F 10.9 °F 74% 30.43 in - North 6.9 mph - N/A   Unknown
11:51 AM 17.1 °F 8.7 °F 10.9 °F 77% 30.42 in - NNW 5.8 mph - 0.01 in   Unknown
12:51 PM 17.1 °F 7.6 °F 10.0 °F 74% 30.42 in - NNW 6.9 mph - N/A   Unknown
1:51 PM 17.1 °F 6.6 °F 9.0 °F 71% 30.43 in - NW 8.1 mph - N/A   Unknown
2:51 PM 16.0 °F 3.6 °F 8.1 °F 71% 30.46 in - NW 10.4 mph - 0.01 in   Unknown
3:51 PM 15.1 °F 4.2 °F 6.1 °F 68% 30.48 in - WNW 8.1 mph - N/A   Unknown
4:51 PM 14.0 °F 3.9 °F 3.9 °F 64% 30.51 in - WNW 6.9 mph - N/A   Unknown
5:51 PM 12.0 °F 2.7 °F 3.0 °F 67% 30.52 in - SW 5.8 mph - N/A   Unknown
6:51 PM 10.0 °F -0.9 °F 1.9 °F 70% 30.55 in - SW 6.9 mph - N/A   Unknown
7:51 PM 7.0 °F -4.5 °F -0.0 °F 73% 30.56 in - SW 6.9 mph - N/A   Unknown
8:51 PM 6.1 °F -5.6 °F -2.0 °F 69% 30.55 in - SW 6.9 mph - N/A   Unknown
9:51 PM 3.0 °F -9.3 °F -2.9 °F 76% 30.54 in - SW 6.9 mph - N/A   Unknown
10:51 PM 3.0 °F -9.3 °F -2.0 °F 80% 30.53 in - SW 6.9 mph - N/A   Unknown
11:51 PM 3.0 °F -9.3 °F -0.9 °F 84% 30.55 in - SW 6.9 mph - N/A   Unknown